Back to catalog

FENGYUN 1C DEB

AliveSSO
NORAD 29798·DEBRIS·🇨🇳 China

Launched May 10, 1999 from Taiyuan Satellite Launch Center

Loading…

Next Passes (next 24 hours)

TLE

FreshSource: Space-Track

Epoch: Sep 14, 2026, 03:39 UTC

1 29798U 99025CQ  26257.15234618  .00001299  00000-0  86185-3 0  9994
2 29798  99.2933 330.3865 0106563 238.4697 149.9089 14.00566724997796

Track FENGYUN 1C DEB in real time with AllMySat

Download on the App Store